Theta_e
280 280 279 279 279 278 278 278 277 278 277 277 276 276 276 276 275 275 275 275 274 274 274 274 273 273 273 273 272 272 273 272 272 272 272 272 272 271 272 271 269 267 268 271 274 273 273 274 274 273 274 273 273 273 273 275 274 274 273 273 273 273 274
281 280 279 279 279 278 278 278 277 277 277 276 276 276 276 275 275 274 274 274 273 274 273 273 272 272 272 273 271 271 271 271 271 271 271 271 271 271 270 271 269 268 267 266 271 271 273 273 274 271 273 272 272 272 273 272 272 273 273 272 273 273 273
280 280 279 279 278 278 278 278 277 277 276 276 276 275 275 275 275 274 273 273 273 273 273 272 271 271 271 271 270 270 270 270 269 270 269 269 270 269 270 270 270 268 266 266 267 270 270 271 272 271 271 272 272 272 272 271 271 271 272 272 272 272 273
280 280 279 278 278 278 278 277 277 277 277 276 276 275 275 275 274 274 273 273 272 272 272 271 271 270 270 270 269 269 269 269 269 269 268 268 268 269 269 270 270 269 267 266 265 268 269 270 269 270 271 271 271 271 271 271 271 271 271 271 271 271 271
280 279 279 278 278 278 277 277 277 276 276 276 276 275 275 274 273 273 273 273 272 272 271 271 270 270 270 269 268 267 268 268 267 267 267 267 267 267 268 268 268 268 268 266 265 266 268 269 269 270 270 270 269 270 270 271 270 270 270 270 271 271 271
279 279 278 278 278 278 278 277 277 276 276 276 276 275 275 274 273 273 273 272 272 272 271 270 270 269 269 268 267 266 267 267 266 266 266 265 266 267 267 267 266 267 266 266 265 265 265 267 267 267 268 269 269 268 268 268 269 269 269 269 269 270 270
279 279 278 278 278 278 277 277 277 276 276 275 275 274 274 273 273 273 272 272 272 271 271 270 269 269 268 267 267 266 265 265 265 265 264 265 265 265 265 265 265 265 265 264 264 264 265 265 266 266 266 268 270 269 269 266 266 266 268 269 269 268 270
278 278 278 278 277 277 277 276 276 276 275 275 274 273 273 273 272 272 271 271 271 271 270 269 269 269 268 267 266 266 265 265 265 265 264 265 265 265 265 264 265 265 265 264 264 264 264 265 265 266 267 268 268 266 267 268 266 265 266 267 268 268 268
278 277 277 277 276 276 276 275 274 274 274 274 273 273 272 272 271 271 270 270 270 270 269 269 268 268 267 267 267 267 266 266 266 265 265 266 266 265 264 264 265 265 264 264 264 263 265 264 265 265 265 265 266 265 265 267 267 266 266 267 266 267 269
277 276 276 275 275 275 274 273 274 274 274 274 273 272 271 271 270 270 270 269 268 268 268 267 267 267 267 267 267 266 266 266 266 266 266 266 266 265 264 264 264 264 264 264 263 263 264 263 264 264 265 265 265 266 267 266 266 265 266 266 265 266 267
275 275 275 274 274 273 273 272 273 273 275 275 275 272 270 270 269 269 268 268 267 267 267 267 266 266 266 266 266 266 267 267 267 267 267 267 267 267 266 264 264 264 264 263 263 264 264 263 263 264 265 265 265 266 265 265 265 265 265 264 263 262 265
274 274 274 273 273 272 272 271 272 274 275 276 276 273 270 269 269 268 267 267 266 267 267 267 267 267 266 266 266 265 266 266 267 267 267 268 268 267 268 268 266 264 264 264 263 263 264 264 264 264 265 265 265 265 265 265 265 265 264 263 263 263 262
273 272 272 272 271 270 270 269 271 274 275 276 276 275 270 269 268 268 267 267 266 266 267 267 268 267 267 266 267 267 266 265 265 267 268 268 268 268 268 268 268 268 267 266 265 264 263 264 264 263 264 265 265 265 264 264 264 264 264 264 263 263 264
271 271 271 270 270 269 269 268 270 273 275 276 277 276 273 268 268 268 268 267 267 267 267 267 268 268 267 268 267 267 266 266 265 266 266 266 266 266 267 267 268 267 267 267 266 265 263 265 265 264 265 266 266 264 263 264 263 264 264 263 263 264 264
270 270 269 269 269 269 268 268 269 273 275 276 277 277 275 269 268 268 268 268 268 268 268 268 268 268 267 268 268 267 266 266 265 265 265 264 264 265 265 265 264 265 265 265 265 265 265 265 265 265 265 266 266 265 265 265 264 264 264 264 264 263 263
270 268 267 268 267 267 267 267 270 273 275 276 276 276 274 273 270 269 269 269 269 269 269 269 268 268 267 267 267 267 267 266 266 264 263 263 263 263 263 263 264 266 267 265 264 265 265 266 266 268 266 267 267 267 267 266 265 263 262 262 261 261 263
269 269 267 267 266 267 267 266 269 272 274 275 276 275 273 272 271 270 269 268 268 268 268 268 267 267 267 266 266 266 267 268 266 264 263 262 262 261 261 263 264 267 269 270 270 270 270 270 270 269 269 268 268 267 267 265 263 262 263 261 260 261 262
268 268 268 267 266 266 266 266 267 271 274 275 275 274 272 271 270 268 268 268 268 268 268 267 266 266 265 265 265 266 267 269 267 265 264 262 261 261 261 262 263 264 264 268 269 269 268 267 266 264 264 265 265 266 265 263 261 263 263 261 261 260 261
268 268 268 267 266 266 266 267 266 269 272 274 275 273 271 270 269 267 267 267 267 267 267 267 266 266 265 265 265 266 268 268 266 265 264 264 263 262 261 263 264 264 263 263 262 263 262 262 260 256 257 259 260 261 261 260 260 262 261 260 260 260 260
269 267 268 267 266 265 266 266 266 266 271 273 273 274 271 269 267 266 266 266 266 266 266 266 265 265 265 266 266 266 268 268 268 265 264 264 263 263 262 265 265 264 264 264 263 263 259 258 257 256 258 257 257 257 258 260 260 260 261 260 260 260 259
268 267 267 266 266 265 265 265 265 265 269 271 272 272 271 269 268 267 266 266 265 265 265 265 265 265 265 265 265 266 267 268 269 268 266 265 264 264 265 266 265 264 264 263 260 260 260 262 261 260 260 260 259 259 259 259 258 258 259 259 259 259 258
267 267 267 266 265 265 264 264 264 265 266 269 271 272 271 269 268 267 266 265 265 265 265 264 265 264 265 264 265 265 267 268 269 268 267 266 268 269 268 266 265 264 263 262 262 262 262 261 261 261 261 260 260 259 258 257 257 257 257 258 258 258 257
266 266 266 265 265 264 264 264 263 263 263 265 268 270 270 270 269 269 267 265 264 264 264 265 264 265 265 264 265 266 267 268 268 267 266 269 268 268 266 263 263 262 262 262 261 261 260 261 260 260 260 260 259 259 256 256 257 255 254 254 255 256 256
265 265 265 264 265 264 264 263 263 262 262 262 263 266 268 268 268 268 266 266 265 265 265 264 264 264 265 265 266 267 267 267 266 266 267 268 267 264 262 262 261 261 261 260 260 259 259 260 260 259 259 258 259 258 255 254 252 252 251 251 254 254 253
265 265 265 265 264 264 263 263 262 262 261 261 261 263 265 266 266 266 266 264 265 265 265 265 265 265 265 265 265 266 266 266 266 266 267 265 262 262 262 261 262 261 260 259 259 259 260 259 259 259 258 256 254 253 253 252 253 252 252 252 250 250 251
265 264 264 264 264 264 264 264 263 262 261 260 260 260 262 263 263 263 264 264 264 264 263 263 264 263 264 264 264 263 263 263 263 262 262 261 261 261 262 261 261 260 259 259 260 259 258 259 259 257 256 252 252 253 255 255 254 255 254 253 253 254 254
264 263 263 263 264 264 264 263 263 262 261 261 260 260 260 260 261 261 262 262 262 263 263 263 263 262 262 263 263 263 263 263 261 260 260 259 260 261 260 260 260 260 260 259 259 258 259 258 257 255 253 254 254 254 255 255 253 253 254 254 255 253 253
264 263 263 263 263 263 263 262 262 262 261 261 261 260 260 260 260 260 261 261 262 262 262 261 261 261 261 261 261 261 261 261 260 260 259 259 258 258 258 257 257 257 258 259 259 258 257 256 255 254 255 255 254 254 254 254 253 252 253 254 253 252 252
264 264 264 264 264 263 262 262 262 262 263 262 262 261 260 259 259 259 260 260 261 260 259 259 259 259 259 259 259 259 259 259 258 258 258 255 256 256 256 256 257 256 257 257 256 256 256 256 256 255 255 254 253 253 254 254 253 253 252 253 253 251 252
265 265 265 264 264 265 263 263 264 264 264 263 262 261 260 260 260 260 259 259 259 259 259 259 258 259 259 258 259 259 259 259 259 258 257 256 255 256 256 256 256 257 258 257 256 257 256 256 255 255 255 254 253 254 254 253 252 252 252 251 252 252 253
266 266 265 264 263 264 263 263 263 262 264 264 264 263 263 262 261 260 260 260 259 258 258 258 258 258 259 258 259 259 259 259 259 259 259 259 257 256 256 255 256 257 257 256 256 255 256 255 255 255 255 254 253 253 253 254 253 252 252 251 251 251 252
265 266 266 264 263 263 263 262 261 261 262 263 263 263 263 263 262 262 262 261 260 258 258 259 258 258 258 259 258 258 259 260 260 260 259 259 258 257 256 256 256 256 256 256 256 255 255 255 255 254 254 254 253 252 253 253 253 252 252 252 252 252 251
265 265 265 266 265 265 264 263 262 261 262 263 263 263 263 263 264 263 263 262 260 258 259 259 259 259 259 259 258 259 259 259 259 259 259 259 259 258 258 257 256 255 255 255 256 256 256 255 254 254 253 252 252 252 252 252 252 253 252 251 251 251 251
264 264 264 265 265 265 265 265 264 264 263 263 263 263 263 263 262 263 264 263 261 260 258 259 259 259 259 259 259 259 259 259 259 259 259 259 258 258 259 256 254 253 254 254 255 255 255 254 254 254 253 253 252 252 252 252 251 252 251 251 251 251 252
263 263 263 262 263 263 263 264 264 264 263 263 263 263 263 263 261 260 261 261 261 261 260 259 259 259 259 259 259 259 259 259 259 259 258 258 257 257 257 255 253 254 254 255 255 255 255 254 253 253 252 253 252 252 251 251 251 251 251 251 251 251 251
261 262 260 259 260 260 261 261 262 262 262 263 263 263 263 260 260 260 260 260 261 261 260 260 260 260 260 260 259 259 259 259 259 258 258 258 257 256 256 255 254 254 254 254 255 255 254 253 253 253 252 252 252 251 251 252 251 251 251 250 250 250 250
Wind_Speed
16 16 16 16 15 15 15 15 14 13 13 12 12 11 11 11 11 11 9 9 10 9 8 8 8 8 7 6 6 5 5 5 6 6 6 6 7 8 8 9 10 12 13 10 8 8 7 7 7 9 9 10 10 10 10 13 12 12 11 11 10 9 11
15 15 16 16 16 16 16 15 15 14 13 13 13 13 10 11 12 12 11 10 10 10 8 9 8 8 8 7 6 6 6 6 6 6 6 7 8 8 8 8 9 11 11 12 8 9 8 8 8 9 9 10 11 11 10 12 12 11 11 10 9 8 7
15 16 16 16 15 16 15 16 15 14 14 14 14 14 12 12 13 13 12 12 11 11 10 9 8 8 7 6 6 7 6 7 7 7 8 9 8 8 8 8 10 10 10 11 10 8 9 8 8 9 9 9 9 11 11 13 13 11 10 9 10 10 10
15 15 16 16 16 16 15 16 15 14 14 15 14 14 14 13 13 12 11 11 10 10 9 9 8 8 8 7 7 7 6 7 7 7 7 8 8 9 9 9 10 10 10 11 12 9 7 7 8 8 9 9 10 11 11 11 12 11 10 10 9 9 9
14 15 16 15 17 16 16 16 15 15 14 13 13 14 13 11 11 11 11 11 10 10 10 9 9 8 7 7 7 7 7 7 8 8 8 8 8 8 8 8 9 10 11 11 11 9 9 9 10 10 10 9 10 10 11 11 10 9 9 9 9 10 10
13 14 16 15 16 16 15 15 15 15 14 14 13 13 12 10 10 11 11 10 10 10 9 9 8 8 8 7 7 8 7 7 8 8 8 9 8 7 7 10 10 9 9 9 10 10 10 10 10 9 9 8 9 10 11 10 9 8 8 9 9 9 8
14 13 14 15 14 15 15 15 14 13 13 13 13 11 10 10 10 10 9 10 10 9 9 8 8 8 8 7 7 7 7 7 7 7 8 8 8 8 8 10 9 9 9 9 10 10 10 10 9 10 11 8 10 11 10 10 9 9 8 7 8 9 8
14 13 13 13 13 13 12 12 12 12 12 11 10 9 8 9 9 9 9 9 9 9 8 8 8 8 8 7 7 7 7 8 8 8 8 8 8 8 9 10 10 9 9 9 9 9 9 9 8 8 9 8 8 9 9 8 8 9 8 8 8 9 10
12 12 12 12 11 11 10 8 9 8 8 9 8 7 8 9 9 9 9 8 8 8 7 7 7 7 7 8 9 12 11 10 10 8 10 9 8 7 7 8 10 9 9 9 9 9 9 9 9 8 7 8 7 8 8 7 7 10 10 10 10 10 10
11 9 8 9 9 8 6 6 5 8 14 11 8 8 7 6 7 8 7 7 7 6 6 6 7 6 10 11 13 14 15 16 17 17 12 10 9 8 8 9 10 10 9 9 9 9 9 9 9 8 8 8 8 8 8 9 9 10 10 11 12 11 9
7 8 8 8 7 8 6 5 7 11 17 17 16 8 8 8 7 6 6 6 7 7 7 7 7 6 9 11 12 13 16 16 18 18 19 18 16 14 11 10 11 11 10 10 9 9 9 10 11 10 8 8 8 9 9 9 9 11 12 12 12 12 9
8 7 7 6 7 8 6 8 7 15 17 17 18 13 8 7 7 7 7 7 7 7 7 7 7 7 7 7 9 9 10 15 19 20 20 20 19 19 19 17 13 11 10 10 10 10 10 10 10 9 8 8 8 9 11 11 11 11 11 11 11 11 10
7 7 6 7 11 10 8 8 10 17 18 18 19 19 12 7 7 8 9 8 8 8 8 8 8 9 8 7 14 12 10 10 12 16 20 21 20 20 20 20 22 21 14 11 12 12 12 11 10 11 10 9 10 10 11 11 11 11 11 11 11 10 9
7 6 9 10 11 8 8 9 10 17 18 18 20 20 16 8 9 9 9 9 9 9 9 10 11 10 10 9 10 10 11 10 10 10 11 13 13 13 16 19 21 20 21 19 15 14 14 12 9 11 11 10 10 10 12 12 12 11 11 11 12 9 8
6 8 9 9 8 5 7 9 14 17 18 19 21 21 17 10 9 8 8 9 10 10 10 10 10 11 12 11 11 10 11 10 10 10 10 10 11 11 10 8 8 9 9 10 11 13 13 12 11 11 11 11 10 11 11 12 13 10 8 7 7 7 8
4 7 9 8 10 7 7 6 15 17 19 20 20 21 13 11 10 9 9 10 10 10 10 11 11 11 12 12 11 11 15 13 9 9 10 12 10 8 7 8 10 15 15 12 10 10 11 11 12 14 12 12 11 10 11 10 7 3 6 8 9 10 10
5 5 6 7 7 7 6 6 12 18 19 19 20 17 11 9 7 7 7 7 7 7 8 7 8 9 9 8 8 10 13 15 14 11 11 11 12 9 8 9 9 16 21 22 23 23 22 22 23 18 12 9 9 7 3 3 5 7 6 7 9 11 10
5 5 6 7 8 7 7 6 9 16 18 19 19 16 10 7 6 6 6 6 6 7 8 9 12 11 9 10 10 12 15 18 16 15 13 12 14 15 12 11 9 7 9 16 18 16 10 3 4 6 7 7 6 5 2 4 8 7 6 8 9 11 10
5 5 5 6 5 7 7 5 8 14 17 18 19 15 10 7 5 6 7 8 9 8 9 9 12 17 14 11 10 17 20 22 19 16 16 15 12 12 15 13 11 10 7 7 5 6 3 2 3 3 2 3 4 3 3 2 4 5 7 10 9 10 9
4 5 5 5 5 6 7 6 5 8 17 17 18 18 10 5 6 7 7 9 9 9 9 10 10 11 16 19 19 19 20 20 21 16 14 13 13 14 14 10 11 10 8 7 7 4 3 2 0 1 1 2 2 2 3 4 4 5 8 9 9 9 9
4 4 4 4 5 5 7 6 6 7 14 16 17 18 16 8 7 7 8 9 9 10 10 10 10 9 13 16 17 18 20 20 20 20 14 14 14 14 13 12 12 8 8 5 4 3 3 3 3 2 2 3 3 4 3 3 3 4 5 7 9 10 11
5 5 7 4 6 5 7 5 6 5 10 15 16 17 18 11 8 6 6 9 11 12 11 11 10 9 10 12 14 16 18 20 20 21 15 14 19 19 22 11 7 5 6 5 5 5 5 4 4 4 4 3 3 4 2 2 3 3 4 5 5 6 8
7 7 7 5 4 4 5 4 4 6 6 9 14 16 16 17 13 13 10 9 10 12 12 10 10 10 13 14 15 16 18 19 21 18 15 21 20 23 10 8 5 4 5 5 5 4 4 5 4 4 5 4 4 3 2 2 3 2 3 4 5 5 5
6 6 7 7 7 4 5 5 4 6 8 6 9 12 14 16 17 17 12 11 10 8 10 11 11 11 14 14 14 17 17 18 17 13 17 21 18 7 13 6 5 5 5 4 4 4 5 5 4 3 4 5 3 2 1 2 2 3 3 4 6 5 5
7 8 8 8 7 5 5 5 5 5 7 10 9 11 14 14 16 16 16 13 11 9 9 12 15 14 13 13 15 17 17 15 15 16 17 6 17 12 5 7 6 5 4 4 5 5 5 4 4 3 3 1 2 2 3 3 4 4 5 4 4 5 6
7 7 8 7 6 6 5 5 5 5 5 5 8 9 12 15 15 15 16 17 13 12 7 6 7 8 11 12 13 10 9 7 2 6 10 11 9 6 5 5 5 4 5 5 5 5 5 4 2 2 1 1 2 3 4 3 3 4 4 4 5 6 6
8 6 6 6 6 5 5 4 5 4 4 5 5 6 6 7 8 13 15 12 11 12 10 8 8 7 9 10 13 13 12 8 5 5 4 3 3 2 4 3 4 5 5 5 5 4 4 2 1 1 1 3 3 4 4 3 3 4 5 4 5 5 7
7 6 7 6 6 5 5 5 5 5 5 6 6 5 6 6 6 7 8 9 9 9 8 6 5 7 8 8 9 9 6 6 6 4 3 3 3 2 1 2 3 2 2 3 2 1 1 1 2 3 3 2 3 4 4 3 3 4 5 4 4 5 7
6 5 6 5 6 6 6 6 6 7 7 5 7 6 5 6 7 7 7 10 10 4 2 2 4 7 8 8 8 8 8 7 6 5 3 2 2 3 3 4 5 5 6 5 3 4 3 3 2 3 3 3 4 4 4 3 3 4 4 5 4 6 6
9 7 5 6 6 6 7 7 5 4 8 9 10 12 12 11 11 10 9 8 10 6 5 6 7 9 8 8 9 9 9 9 9 8 5 5 5 4 5 5 5 5 4 3 4 3 3 3 3 4 3 4 4 4 4 4 4 4 3 4 5 6 6
15 13 10 6 6 6 8 8 5 4 9 11 11 12 13 14 14 14 14 11 6 6 8 8 8 8 8 9 8 9 9 9 9 9 8 7 6 6 6 5 5 5 3 3 4 3 3 3 4 4 4 4 4 4 4 3 4 4 4 5 5 6 6
14 14 14 13 11 8 6 7 10 10 12 14 14 14 14 14 15 15 15 14 13 8 8 8 9 8 8 8 9 9 8 9 9 9 8 6 5 5 5 6 6 6 5 4 4 4 4 4 4 4 4 4 4 2 4 4 4 4 4 5 5 6 6
13 14 14 14 15 16 14 10 8 12 14 14 14 14 14 14 15 16 17 17 12 10 10 9 9 9 8 8 9 9 10 10 10 9 6 6 6 6 5 6 5 4 4 5 5 5 5 4 4 4 3 3 3 4 5 4 4 4 4 4 5 6 6
12 13 13 14 14 14 15 16 16 16 15 15 16 15 14 14 12 15 17 15 11 10 10 10 9 9 8 8 8 9 9 10 10 8 7 6 6 6 5 3 4 4 5 5 5 5 5 4 4 3 4 4 4 4 4 4 4 4 4 5 5 5 5
6 9 12 9 8 10 12 13 13 10 12 17 17 16 15 15 11 11 11 12 12 10 8 9 9 8 8 8 8 9 8 9 8 6 6 6 5 5 5 4 4 5 5 5 5 5 5 4 5 4 4 4 4 4 5 5 5 4 4 5 5 5 6
6 4 1 3 7 9 10 11 11 11 10 10 13 16 16 11 11 10 11 11 11 10 8 7 7 7 7 7 8 8 8 7 7 7 6 6 5 5 5 5 5 4 5 5 5 5 5 4 4 4 4 4 5 5 6 5 5 4 4 4 5 5 5
Wind_Direction
190 188 189 189 191 192 192 194 195 193 193 194 196 198 197 194 194 199 202 201 202 197 203 208 209 215 220 224 235 244 245 248 249 250 252 248 248 251 246 243 248 257 269 270 268 273 274 275 278 276 276 282 282 283 287 290 290 294 296 296 295 293 291
189 189 189 190 192 193 194 196 195 193 193 195 196 197 196 195 195 198 202 202 203 202 202 207 210 213 215 222 225 236 247 254 255 258 254 249 250 250 248 244 248 258 264 275 274 271 272 271 271 277 277 279 285 286 288 289 293 293 292 290 291 292 291
190 189 189 191 192 193 195 196 195 194 195 196 196 194 193 194 194 197 199 203 202 203 204 204 206 209 212 217 219 224 235 245 254 256 255 251 252 253 253 250 250 258 265 273 275 272 276 274 274 271 280 284 285 288 290 289 289 290 290 286 289 290 290
193 189 190 192 193 194 195 196 196 196 196 196 195 195 193 192 194 196 199 200 199 200 202 202 203 205 207 214 217 222 233 243 246 249 251 251 248 252 255 260 256 252 263 273 277 274 270 281 285 283 284 285 285 284 283 283 289 287 285 284 283 283 283
194 192 191 193 193 193 194 195 195 195 195 196 197 195 194 191 193 195 196 197 195 195 194 195 198 202 200 203 213 219 230 240 242 243 248 251 250 249 250 252 252 257 262 268 271 277 278 281 280 280 279 277 282 285 285 285 284 281 281 281 282 285 282
193 193 194 194 193 193 193 193 195 195 194 195 197 197 196 189 189 193 192 194 195 191 191 191 197 198 198 197 203 223 231 232 232 236 245 246 247 248 251 253 256 258 259 261 268 273 278 273 276 278 271 276 276 280 284 284 282 278 276 277 278 278 281
196 195 194 193 191 193 192 192 193 194 193 194 197 197 193 190 191 194 196 196 194 192 192 193 195 196 197 197 203 212 221 222 224 228 233 234 235 243 247 249 251 252 255 257 264 268 266 272 272 271 276 272 275 279 278 282 285 282 279 278 279 283 282
196 195 193 194 191 190 186 186 187 190 189 191 191 186 188 191 193 192 197 193 194 193 190 191 196 197 200 199 203 206 217 217 229 231 227 233 230 232 237 242 249 253 252 254 255 259 266 264 268 268 267 270 269 269 270 263 267 280 284 282 283 281 288
196 193 193 191 183 181 178 179 181 181 179 182 181 176 187 196 192 191 190 191 189 192 187 190 197 198 198 204 212 219 221 218 214 222 237 234 224 217 225 235 247 248 248 253 257 261 263 263 261 261 265 270 269 267 273 281 283 283 283 284 285 282 283
199 194 187 183 181 177 168 172 173 178 190 186 179 178 179 184 186 186 183 182 187 186 191 191 201 202 206 216 224 228 228 227 226 225 229 240 237 218 224 237 242 244 247 253 256 258 260 262 263 266 268 270 269 273 277 277 278 280 285 287 285 284 279
190 194 196 191 176 173 174 155 179 188 199 203 196 176 180 186 193 183 182 184 190 198 199 208 206 212 218 224 231 233 233 231 231 232 232 232 238 241 237 235 239 241 246 252 256 258 259 263 268 265 264 267 275 278 274 275 280 284 287 284 288 288 292
196 191 189 182 178 170 161 159 177 195 203 206 206 190 183 184 186 182 191 193 190 207 209 212 215 216 210 208 212 216 228 235 235 234 232 232 235 238 239 236 236 242 244 245 255 259 258 262 261 268 271 274 276 275 277 277 279 281 283 282 278 280 280
181 188 178 173 174 173 156 164 185 198 203 207 209 205 185 190 186 187 197 192 194 200 214 216 230 239 226 210 219 226 221 220 233 235 234 236 241 244 243 243 242 240 242 254 260 262 263 256 263 268 267 267 270 275 276 279 277 277 274 271 273 273 279
182 174 164 169 171 169 159 165 186 199 205 209 213 210 193 189 186 200 197 194 193 202 206 220 231 241 245 233 219 222 224 219 221 224 230 237 240 242 243 245 246 249 252 256 259 261 261 258 251 263 272 274 273 271 270 271 272 274 273 271 271 285 284
175 167 167 157 159 166 176 179 192 202 208 214 215 216 204 188 193 201 205 202 203 204 210 213 222 234 245 248 241 224 209 209 211 215 220 224 227 228 231 232 237 243 246 245 246 250 252 254 253 255 260 260 259 254 259 260 264 275 284 293 297 284 257
150 151 160 164 156 169 179 186 198 206 212 215 219 219 223 211 191 195 201 206 207 207 214 217 228 240 244 247 241 219 218 212 210 210 217 228 231 232 232 236 235 241 241 236 235 240 245 247 247 245 244 251 255 259 257 255 257 267 263 265 267 270 276
174 176 169 167 171 175 185 178 199 207 212 217 220 222 223 223 223 209 196 193 190 204 218 215 211 222 230 224 223 221 224 225 217 218 220 230 237 232 234 247 242 248 251 250 246 242 242 247 249 256 273 296 315 332 305 275 260 258 250 255 266 273 275
174 182 180 181 185 181 181 181 194 207 213 216 220 221 222 225 215 209 204 215 217 231 234 231 218 216 224 231 234 234 233 241 244 244 234 228 231 235 237 243 240 232 240 249 254 262 262 266 34 18 350 332 324 329 331 274 272 291 286 269 270 276 279
177 185 186 192 187 179 187 182 191 206 214 218 222 223 221 219 210 212 221 233 238 235 239 240 236 233 231 228 232 243 251 251 249 247 247 245 231 229 233 241 239 237 220 223 223 241 206 227 74 41 14 331 344 327 332 281 271 274 266 269 270 274 283
194 187 192 174 179 186 195 191 189 199 214 220 225 226 221 214 215 224 222 230 240 247 243 242 243 240 238 241 244 245 248 248 244 241 241 240 243 248 244 236 232 228 225 220 207 207 113 233 291 193 210 216 248 258 246 251 249 253 261 264 270 272 269
196 191 193 171 181 189 202 195 191 195 213 220 225 229 230 230 225 226 228 234 241 246 248 247 245 246 246 242 243 246 248 249 247 245 239 231 234 237 245 242 238 214 199 194 167 181 215 232 241 238 237 240 231 239 219 224 239 246 257 258 265 268 267
209 210 217 186 196 200 208 195 196 194 210 221 227 229 231 235 235 219 216 235 247 250 247 247 248 248 244 235 236 245 246 247 247 246 248 245 244 243 245 241 200 163 178 183 199 212 223 233 242 251 250 245 240 236 222 223 239 232 244 257 258 265 270
215 218 219 214 194 197 197 192 188 203 206 222 229 234 239 244 247 249 251 246 245 244 249 248 246 247 248 248 250 250 248 247 250 251 249 253 250 252 238 146 173 155 181 193 198 213 233 238 238 245 251 252 250 243 167 239 243 257 263 264 267 278 275
216 215 216 218 221 198 195 192 199 201 210 218 231 238 243 248 252 255 254 255 256 249 239 246 248 249 249 245 250 255 253 251 248 250 248 250 254 152 135 157 141 169 181 195 199 219 233 240 241 235 254 257 257 276 14 292 284 261 234 244 260 258 257
220 220 224 223 218 203 192 190 192 201 205 216 229 238 243 249 253 257 259 261 260 253 241 240 244 242 238 247 258 259 261 260 264 266 264 203 129 146 149 154 177 169 176 193 215 224 234 238 238 234 257 27 7 302 265 248 244 214 231 239 244 257 255
225 222 225 225 216 211 201 186 186 198 197 200 225 236 245 247 250 253 253 253 255 258 250 229 222 236 251 257 256 256 255 258 268 96 137 140 141 148 168 163 170 179 181 219 223 226 225 236 207 208 141 115 245 256 260 251 267 274 248 220 242 252 246
231 215 212 221 221 211 201 197 196 199 199 197 207 218 226 237 246 247 250 252 248 248 243 232 230 239 247 252 253 253 255 236 148 148 147 145 172 167 148 183 181 193 206 216 226 219 228 210 183 132 186 235 223 248 252 235 257 264 267 267 269 273 276
227 213 214 216 214 212 212 215 209 209 206 208 203 213 214 221 229 228 234 232 231 228 228 234 250 256 257 252 253 242 211 201 199 183 179 173 165 166 127 118 80 67 221 228 217 231 162 205 196 242 243 237 243 250 253 227 234 248 265 264 272 270 272
223 220 221 217 217 209 222 219 217 221 204 206 195 201 208 212 217 221 221 227 226 216 160 219 238 247 243 237 232 224 218 206 197 197 175 147 165 157 175 180 190 205 202 201 185 211 219 231 226 243 239 239 252 250 248 219 229 243 252 269 256 263 274
246 240 213 219 228 219 228 235 232 183 205 218 220 221 221 226 226 220 220 210 197 206 224 227 234 235 230 228 224 222 217 211 207 202 188 193 191 186 189 201 202 211 215 172 204 210 216 232 231 251 239 245 246 257 243 226 227 247 239 254 260 265 267
241 242 232 220 237 227 218 246 260 251 249 244 238 236 236 231 231 230 226 216 188 205 219 227 226 228 228 224 223 223 223 217 212 208 206 200 181 200 194 201 210 211 205 188 197 211 218 228 230 245 246 246 252 252 255 237 221 233 246 251 260 265 272
242 242 239 225 223 236 246 221 231 237 243 246 248 247 244 236 223 223 218 216 195 203 216 218 223 228 225 221 222 223 223 223 222 224 222 223 206 201 198 197 214 207 188 199 200 206 215 213 226 233 240 244 248 248 254 249 243 236 240 251 252 261 267
247 246 247 245 239 232 236 240 213 217 232 240 243 242 241 240 234 225 219 215 205 208 218 221 222 225 227 221 223 225 224 227 228 229 223 223 224 222 207 205 199 129 188 209 212 207 216 217 216 228 232 234 236 237 249 244 246 248 250 255 266 265 260
243 246 249 251 251 252 250 246 237 229 227 230 235 235 234 233 236 238 234 230 225 208 211 219 220 222 226 228 230 232 229 229 232 227 225 223 220 224 223 143 129 180 207 205 200 209 217 211 220 213 225 231 229 232 241 250 248 251 250 254 254 266 274
249 235 234 246 259 261 261 261 268 271 250 234 232 231 231 234 237 235 234 231 231 231 213 215 219 222 225 228 228 232 229 231 227 221 219 220 218 212 210 169 180 199 201 203 199 202 210 208 208 208 216 233 235 234 232 237 241 242 246 254 264 269 273
270 266 158 257 273 268 268 269 267 262 261 260 244 238 233 235 236 233 229 224 221 217 217 213 216 219 225 225 227 228 227 220 223 222 219 216 213 213 202 196 198 202 198 200 205 204 200 188 205 212 211 221 233 234 240 251 248 252 250 250 259 267 276